This demonstration page uses our WeatherBlox Daily Observations layout. Learn more.

Hourly Observations for August 23, 2017

Temp ( °F °C ) Dew Point ( °F °C ) Humidity (%) Winds ( mph kmh ) Pressure ( in mb ) Visibility ( mi km ) Precip ( " mm )
12:15 am 00:15 Clear 60 15.7 53 11.6 77 77 SSE 3 6 30.15 1021 10 16.09344 0 0
12:35 am 00:35 Partly Cloudy 59 15.2 53 11.5 79 79 S 5 7 30.15 1021 10 16.09344 0 0
12:55 am 00:55 Partly Cloudy 59 15.2 53 11.5 79 79 S 6 9 30.15 1021 10 16.09344 0 0
1:15 am 01:15 Clear 59 15.2 52 11 76 76 S 5 7 30.15 1021 10 16.09344 0 0
1:35 am 01:35 Partly Cloudy 60 15.3 52 11 76 76 S 6 9 30.15 1021 10 16.09344 0 0
1:55 am 01:55 Partly Cloudy 60 15.3 52 11 76 76 S 6 9 30.15 1021 10 16.09344 0 0
2:15 am 02:15 Clear 60 15.5 51 10.7 73 73 S 7 11 30.15 1021 10 16.09344 0 0
2:35 am 02:35 Clear 59 15.1 51 10.5 74 74 S 6 9 30.15 1021 10 16.09344 0 0
2:55 am 02:55 Clear 57 13.9 51 10.7 81 81 SSE 5 7 30.18 1022 10 16.09344 0 0
3:15 am 03:15 Clear 55 13 51 10.7 86 86 S 3 6 30.18 1022 10 16.09344 0 0
3:35 am 03:35 Clear 56 13.3 51 10.6 84 84 S 5 7 30.18 1022 10 16.09344 0 0
3:55 am 03:55 Clear 56 13.3 51 10.5 83 83 S 6 9 30.15 1021 10 16.09344 0 0
4:15 am 04:15 Clear 56 13.5 50 10.2 81 81 S 7 11 30.15 1021 10 16.09344 0 0
4:35 am 04:35 Clear 56 13.2 50 10.2 82 82 S 5 7 30.15 1021 10 16.09344 0 0
4:55 am 04:55 Clear 55 13 50 10.1 83 83 S 6 9 30.15 1021 10 16.09344 0 0
5:15 am 05:15 Clear 55 12.7 50 10.1 84 84 S 7 11 30.15 1021 10 16.09344 0 0
5:35 am 05:35 Clear 55 13 50 10 82 82 S 6 9 30.15 1021 10 16.09344 0 0
5:55 am 05:55 Partly Cloudy 56 13.2 50 10 81 81 S 8 13 30.15 1021 10 16.09344 0 0
6:15 am 06:15 Partly Cloudy 56 13.1 50 10 82 82 S 6 9 30.15 1021 10 16.09344 0 0
6:35 am 06:35 Partly Cloudy 56 13.1 50 10 82 82 S 6 9 30.15 1021 10 16.09344 0 0
6:55 am 06:55 Partly Cloudy 56 13.2 50 10 81 81 S 5 7 30.15 1021 10 16.09344 0 0
7:15 am 07:15 Partly Cloudy 55 13 50 10.2 83 83 S 3 6 30.15 1021 10 16.09344 0 0
7:35 am 07:35 Sunny 56 13.1 51 10.3 83 83 S 8 13 30.15 1021 10 16.09344 0 0
7:55 am 07:55 Sunny 57 13.7 51 10.7 82 82 SSW 7 11 30.15 1021 10 16.09344 0 0
8:15 am 08:15 Sunny 58 14.3 52 11.2 82 82 S 7 11 30.12 1020 10 16.09344 0 0
8:35 am 08:35 Sunny 60 15.3 52 11.2 77 77 SSW 8 13 30.12 1020 10 16.09344 0 0
8:55 am 08:55 Sunny 61 16.2 52 11.1 72 72 SSW 9 15 30.12 1020 10 16.09344 0 0
9:15 am 09:15 Sunny 62 16.9 51 10.7 67 67 S 12 19 30.12 1020 10 16.09344 0 0
9:35 am 09:35 Sunny 64 17.6 51 10.8 65 65 SSW 10 17 30.09 1019 10 16.09344 0 0
9:55 am 09:55 Sunny 65 18.4 53 11.4 64 64 SSW 12 19 30.09 1019 10 16.09344 0 0
10:15 am 10:15 Sunny 66 19 52 10.9 60 60 S 10 17 30.12 1020 10 16.09344 0 0
10:35 am 10:35 Sunny 68 19.8 53 11.5 59 59 SSW 9 15 30.12 1020 10 16.09344 0 0
10:55 am 10:55 Sunny 68 20.2 53 11.4 57 57 SSW 10 17 30.09 1019 10 16.09344 0 0
11:15 am 11:15 Sunny 69 20.8 52 11 54 54 SSW 12 19 30.09 1019 10 16.09344 0 0
11:35 am 11:35 Sunny 71 21.9 53 11.5 52 52 S 9 15 30.06 1018 10 16.09344 0 0
11:55 am 11:55 Sunny 72 22.4 50 10.1 46 46 S 12 19 30.06 1018 10 16.09344 0 0
12:15 pm 12:15 Sunny 73 23 51 10.6 46 46 S 13 20 30.06 1018 10 16.09344 0 0
12:35 pm 12:35 Sunny 74 23.2 50 10.2 44 44 SSW 14 22 30.03 1017 10 16.09344 0 0
12:55 pm 12:55 Sunny 74 23.6 50 10.2 43 43 S 13 20 30.03 1017 10 16.09344 0 0
1:15 pm 13:15 Sunny 75 24 50 10.1 42 42 S 12 19 30.03 1017 10 16.09344 0 0
1:35 pm 13:35 Sunny 76 24.5 50 10 40 40 SSW 12 19 30 1016 10 16.09344 0 0
1:55 pm 13:55 Sunny 76 24.6 51 10.3 41 41 S 13 20 30 1016 10 16.09344 0 0
2:15 pm 14:15 Sunny 77 25.1 50 9.8 38 38 S 9 15 30 1016 10 16.09344 0 0
2:35 pm 14:35 Sunny 78 25.7 51 10.3 38 38 S 12 19 30 1016 10 16.09344 0 0
2:55 pm 14:55 Sunny 78 25.7 49 9.6 36 36 S 13 20 30 1016 10 16.09344 0 0
3:15 pm 15:15 Sunny 79 26.1 49 9.2 34 34 S 10 17 29.97 1015 10 16.09344 0 0
3:35 pm 15:35 Sunny 80 26.6 48 9 33 33 S 15 24 29.97 1015 10 16.09344 0 0
3:55 pm 15:55 Sunny 80 26.8 49 9.4 33 33 S 10 17 29.97 1015 10 16.09344 0 0
4:15 pm 16:15 Sunny 80 26.8 48 8.9 32 32 S 10 17 29.94 1014 10 16.09344 0 0
4:35 pm 16:35 Sunny 81 27.1 48 9.1 32 32 S 12 19 29.94 1014 10 16.09344 0 0
4:55 pm 16:55 Sunny 81 27 49 9.2 33 33 S 12 19 29.94 1014 10 16.09344 0 0
5:15 pm 17:15 Sunny 80 26.9 48 9.1 33 33 S 10 17 29.94 1014 10 16.09344 0 0
5:35 pm 17:35 Sunny 81 27.2 49 9.3 32 32 S 13 20 29.88 1012 10 16.09344 0 0
5:55 pm 17:55 Sunny 80 26.8 50 10.1 35 35 SSE 10 17 29.91 1013 10 16.09344 0 0
6:15 pm 18:15 Sunny 80 26.5 49 9.7 35 35 SSE 9 15 29.91 1013 10 16.09344 0 0
6:35 pm 18:35 Sunny 79 26.3 50 10 36 36 SSE 8 13 29.91 1013 10 16.09344 0 0
6:55 pm 18:55 Sunny 78 25.8 52 11.1 40 40 SSE 7 11 29.91 1013 10 16.09344 0 0
7:15 pm 19:15 Sunny 77 25 53 11.9 44 44 S 8 13 29.91 1013 10 16.09344 0 0
7:35 pm 19:35 Sunny 75 23.8 55 12.8 50 50 SSE 6 9 29.88 1012 10 16.09344 0 0
7:55 pm 19:55 Sunny 72 22.4 56 13.5 57 57 SSE 6 9 29.94 1014 10 16.09344 0 0
8:15 pm 20:15 Sunny 69 20.8 56 13.1 62 62 SSE 8 13 29.91 1013 10 16.09344 0 0
8:35 pm 20:35 Clear 68 19.9 55 12.8 64 64 SSE 7 11 29.91 1013 10 16.09344 0 0
8:55 pm 20:55 Clear 65 18.5 55 12.7 69 69 SE 7 11 29.97 1015 10 16.09344 0 0
9:15 pm 21:15 Clear 64 18 55 12.5 70 70 SE 8 13 29.97 1015 10 16.09344 0 0
9:35 pm 21:35 Clear 64 17.9 54 12 69 69 SE 8 13 29.97 1015 10 16.09344 0 0
9:55 pm 21:55 Clear 64 17.5 53 11.7 69 69 SSE 7 11 29.97 1015 10 16.09344 0 0
10:15 pm 22:15 Clear 63 17.2 53 11.6 70 70 SSE 6 9 29.97 1015 10 16.09344 0 0
10:35 pm 22:35 Clear 63 17.2 53 11.5 69 69 SSE 7 11 29.97 1015 10 16.09344 0 0
10:55 pm 22:55 Clear 64 17.5 52 11.2 67 67 SSE 8 13 29.97 1015 10 16.09344 0 0
11:15 pm 23:15 Clear 64 17.5 52 11.2 67 67 SSE 10 17 29.97 1015 10 16.09344 0 0
11:35 pm 23:35 Clear 64 17.7 52 11 65 65 SSE 9 15 29.97 1015 10 16.09344 0 0
11:55 pm 23:55 Clear 64 17.5 51 10.8 65 65 SSE 8 13 29.97 1015 10 16.09344 0 0

Powered by AerisWeather